Regional Weather Roundup
Issued by NWS

Home | Current Version | Previous Version | Text Only | Print | Product List | Glossary On
Versions: 1 2 3 4 5 6 7 8 9 10 11 12 13 14 15 16 17 18 19 20 21 22 23 24 25 26 27 28 29 30 31 32 33 34 35 36 37 38 39 40 41 42 43 44 45 46 47 48 49 50
000
ASUS43 KTOP 270708
RWRKS

WEATHER ROUNDUP FOR KANSAS
NATIONAL WEATHER SERVICE GOODLAND KS
100 AM CST TUE JAN 27 2015

NOTE:  "FAIR" INDICATES FEW OR NO CLOUDS BELOW 12,000 FEET WITH NO
SIGNIFICANT WEATHER AND/OR OBSTRUCTIONS TO VISIBILITY.

KSZ001>006-013>018-027>032-041>047-270800-
NORTHWEST KANSAS

CITY           SKY/WX    TMP DP  RH WIND       PRES   REMARKS
GOODLAND       PTCLDY    42  30  62 W13       30.13F
HAYS           CLEAR     36  23  60 NW7       30.09F
HILL CITY      CLEAR     39  28  64 W7        30.09F
RUSSELL        CLEAR     35  28  75 SW7       30.08S
$$

KSZ061>065-074>080-084>089-270800-
SOUTHWEST KANSAS

CITY           SKY/WX    TMP DP  RH WIND       PRES   REMARKS
DODGE CITY     CLEAR     45  29  53 W7        30.14S
ELKHART          N/A     46  30  53 W10         N/A
GARDEN CITY    CLEAR     37  29  72 W7        30.14S
GREAT BEND     CLEAR     37  27  65 CALM      30.10S
LIBERAL        CLEAR     41  28  60 W10       30.19S
PRATT          CLEAR     37  32  81 W10       30.11S WCI  30
$$

KSZ066>073-081>083-090>101-270800-
SOUTHEAST KANSAS

CITY           SKY/WX    TMP DP  RH WIND       PRES   REMARKS
CHANUTE        CLEAR     41  33  73 NW6       30.06R
COFFEYVILLE    CLEAR     36  31  82 NW7       30.06R
HUTCHINSON     CLEAR     37  30  75 NW6       30.09R
MEDICINE LODGE   N/A     38  30  73 N6        30.09S
NEWTON         CLEAR     45  28  53 NW5       30.09S
PARSONS        CLEAR     33  30  88 N5        30.06R
WICHITA INTL   CLEAR     42  31  64 NW6       30.07S
WICHITA JABRA  CLEAR     47  33  58 NW8       30.07S
WICHITA MCCONL CLEAR     48  34  58 N3        30.07F
WINFIELD       CLEAR     37  30  75 CALM      30.08S
$$

KSZ007>012-019>026-033>040-048>060-102>105-270800-
NORTHEAST KANSAS

CITY           SKY/WX    TMP DP  RH WIND       PRES   REMARKS
CONCORDIA      CLEAR     37  31  78 CALM      30.08R
EMPORIA        CLEAR     39  29  67 W6        30.07R
LAWRENCE       CLEAR     27  23  85 NW6       30.06R
MANHATTAN      CLEAR     29  25  85 CALM      30.08R
MARYSVILLE     CLEAR     34  28  80 CALM      30.07S
OLATHE IND     CLEAR     38  29  70 NW6       30.05R
OLATHE EXE     CLEAR     43  31  62 NW7       30.04R
SALINA         CLEAR     38  30  73 CALM      30.08S
TOPEKA BILLARD CLEAR     33  28  81 CALM      30.07R
TOPEKA FORBES  CLEAR     35  27  72 W7        30.06R
$$



USA.gov is the U.S. government's official web portal to all federal, state and local government web resources and services.